Tracking 19245 objects as of 22-Aug-2018
HD Live streaming from Space Station
objects crossing your sky now

SL-12 DEB

Track SL-12 DEB now!
10-day predictions


NORAD ID: 42981
Int'l Code: 2010-041W
Perigee: 660.2 km
Apogee: 17,647.4 km
Inclination: 65.8 °
Period: 320.8 minutes
Semi major axis: 15524 km
RCS: Unknown
Launch date: September 2, 2010
Source: Commonwealth of Independent States (former USSR) (CIS)
Launch site: TYURATAM MISSILE AND SPACE COMPLEX (TTMTR)

Note: This is SATELLITE DEBRIS
aabbcc
Your satellite tracking list
Your tracking list is empty




NASA's NSSDC Master Catalog

Two Line Element Set (TLE):
1 42981U 10041W   18231.92189784 +.00000095 +00000-0 +79041-3 0  9991
2 42981 065.7802 050.5654 5470993 058.1121 017.3085 04.48811481015306
Source of the keplerian elements: AFSPC